Regional Weather Roundup
Issued by NWS

Home | Current Version | Previous Version | Text Only | Print | Product List | Glossary On
Versions: 1 2 3 4 5 6 7 8 9 10 11 12 13 14 15 16 17 18 19 20 21 22 23 24 25 26 27 28 29 30 31 32 33 34 35 36 37 38 39 40 41 42 43 44 45 46 47 48 49 50
000
ASUS44 KLUB 030001
RWRTX
WEST TEXAS WEATHER ROUNDUP
NATIONAL WEATHER SERVICE LUBBOCK TX
700 PM CDT SUN AUG 02 2015

NOTE: "FAIR" INDICATES FEW OR NO CLOUDS BELOW 12,000 FEET WITH NO
SIGNIFICANT WEATHER AND/OR OBSTRUCTIONS TO VISIBILITY.

TXZ004-006>008-010-012-014-016-OKZ002-030100-
TEXAS PANHANDLE/OKLAHOMA PANHANDLE

CITY           SKY/WX    TMP DP  RH WIND       PRES   REMARKS
AMARILLO       MOSUNNY   88  65  46 SE12      29.95F
BORGER         MOSUNNY   89  66  46 S6        29.91F
DALHART        CLOUDY    87  61  41 SE5       29.98R
DUMAS          HVY RAIN  62  60  94 E3G32     29.98R VSB 1
GUYMON         MOSUNNY   88  66  48 SE6       29.90F
PAMPA          MOSUNNY   90  67  46 S10G16    29.93F
$$

TXZ026-029-035-045-048-030100-
SOUTHERN PANHANDLE/SOUTH PLAINS/ROLLING PLAINS

CITY           SKY/WX    TMP DP  RH WIND       PRES   REMARKS
CHILDRESS      MOSUNNY   92  67  43 S14       29.86F HX  95
SEMINOLE       PTSUNNY   88  57  34 SE15      29.95R
LUBBOCK        PTSUNNY   86  61  42 S16       29.95R
$$

TXZ052-054-060>062-072-078-127-140-154-169-030100-
PERMIAN BASIN/CONCHO VALLEY/BIG COUNTRY/EDWARDS PLATEAU

CITY           SKY/WX    TMP DP  RH WIND       PRES   REMARKS
ABILENE        SUNNY     95  61  32 SE12      29.89F HX  95
BIG SPRING     PTSUNNY   84  59  42 E14G28    29.92S
BRADY          PTSUNNY   97  61  30 E9        29.89F HX  97
JUNCTION       MOSUNNY   95  59  30 SE10      29.89F
MIDLAND        MOSUNNY   98  55  23 SE16      29.89F HX  96
ODESSA         SUNNY     98  52  21 S15G22    29.90F HX  95
SAN ANGELO     SUNNY     98  59  27 SE13      29.87F HX  98
WINK           MOSUNNY   99  53  21 S12       29.85F HX  96
$$

TXZ055-058-074-075-080-082-030100-
FAR WEST/SOUTHWEST MOUNTAINS/TRANS PECOS

CITY           SKY/WX    TMP DP  RH WIND       PRES   REMARKS
ALPINE         PTSUNNY   87  57  35 N9        30.06F
DRYDEN           N/A     99  59  26 SE14G25   29.85F HX  99
EL PASO        MOSUNNY   94  54  25 VRB5      29.93F
FORT STOCKTON  SUNNY     96  54  24 SE15G21   29.90S
GUADALUPE PASS CLOUDY    78  57  48 SW7       30.12F
MARFA          CLOUDY    88  57  35 S3        30.06F
$$

TXZ014-016-019-021>030-083-030100
TEXAS TECH WEST TEXAS MESONET/TEXAS PANHANDLE/NORTHERN SOUTH PLAINS

CITY           SKY/WX    TMP DP  RH WIND       PRES   REMARKS
ABERNATHY 5ENE   N/A     90  61  38 S15       29.96S
AMARILLO 9NNE    N/A     90  66  44 SE13      29.92F
AMARILLO 7SSE    N/A     88  67  49 SE8       29.96F
AMHERST 1NE      N/A     87  64  45 N13       29.97R
BOOTLEG 11WNW    N/A     89  60  37 S9        30.02F
CANADIAN 6E      N/A     90  70  51 SE17      29.85S HX  95
CAPROCK CYN SP   N/A     91  65  41 S10       29.90F
CHILDRESS 2NNE   N/A     94  65  38 S13       29.86F HX  95
CLARENDON 2WSW   N/A     91  66  43 S10       29.91F
CLAUDE 12SW      N/A     87  69  54 SE5       29.95F
DIMMITT 2NE      N/A     87  66  49 S15       29.97F
FLOYDADA 2NNE    N/A     88  59  37 S9        29.94S
FRIONA 2NE       N/A     89  60  38 S14       29.98S
GOODLETT 3W      N/A     94  62  34 SE14      29.84F HX  95
HART 3N          N/A     85  64  49 S10       29.96F
HEREFORD 2NW     N/A     85  62  45 SE8       29.96F
MCLEAN 1E        N/A     89  66  47 S13       29.90F
MEMPHIS 1NE      N/A     94  65  37 SE9       29.86F HX  96
MULESHOE 2SSW    N/A     81  69  67 SE8       29.98R
OLTON 6S         N/A     88  58  36 S9        29.96R
PALO DURO SP     N/A     89  67  46 S6        29.95F
PAMPA 2E         N/A     88  68  52 SE12      29.93F
PLAINVIEW 1S     N/A     88  65  47 SE8       29.94S
SILVERTON 7ESE   N/A     88  65  45 S10       29.93F
TULIA 2ENE       N/A     85  69  57 S7        29.95F
TURKEY 2WSW      N/A     92  65  41 SE13      29.88F
UMBARGER 3NNE  LGT RAIN  84  70  64 S13       29.97F
$$

TXZ033>036-039>041-045>048-030100
TEXAS TECH WEST TEXAS MESONET/SOUTH PLAINS

CITY           SKY/WX    TMP DP  RH WIND       PRES   REMARKS
AIKEN 3WSW       N/A     84  67  57 SE8       29.96S
ANDREWS 2NE      N/A     86  59  38 NE16      29.92F
ANTON 6SSW       N/A     81  64  55 S14       29.96R
BROWNFIELD 2S    N/A     80  63  56 N6        29.97R
DENVR CTY 7WNW   N/A     91  55  28 E16       29.94F
GAIL 2ESE        N/A     93  58  30 SE8       29.89S
LAMESA 2SE       N/A     81  59  47 S16       29.94S
LEVELLAND 4S     N/A     78  61  55 SE9       29.97F
LUBBOCK 3WNW     N/A     84  62  47 S13       29.96S
MORTON 1ENE      N/A     88  62  41 SE6       29.96S
ODONNELL 1N      N/A     88  56  34 SE3       29.95F
PLAINS 3N        N/A     81  63  54 N7        29.98S
RALLS 1SE        N/A     89  62  39 S10       29.95S
REESE CENTER   LGT RAIN  74  65  72 S16       29.97R
SEAGRAVES 1SW    N/A     87  63  45 SE12      29.95R
SEMINOLE 2NNE    N/A     88  56  33 E17       29.94R
SLATON 2NE       N/A     82  63  52 S14       29.95S
SNYDER 3E        N/A     95  60  31 SE13      29.90S
SUNDOWN 8SW      N/A     80  62  54 E10       29.97S
TAHOKA 3NNE      N/A     74  68  80 SE5       29.94F
WOLFFORTH 6SSW   N/A     78  63  60 SW8       29.97F
$$

TXZ031-032-036>038-042>044-030100-
TEXAS TECH WEST TEXAS MESONET/ROLLING PLAINS

CITY           SKY/WX    TMP DP  RH WIND       PRES   REMARKS
ASPERMONT 3NE    N/A     95  61  32 SE14      29.86F HX  95
FLUVANNA 3WNW    N/A     91  57  31 SE8       29.91S
GRAHAM 5SSW      N/A     88  58  36 S5        29.93R
GUTHRIE 10WSW    N/A     94  63  35 SE13      29.87S HX  95
HASKELL 1NW      N/A     93  57  29 SE10      29.86F
JAYTON 1SSE      N/A     93  60  32 E12       29.87S
KNOX CITY 3NW    N/A     94  61  32 SE13      29.85F
LK A HENRY 1NW   N/A     94  62  34 SE5       29.88S
NORTHFIELD 1S    N/A     94  65  38 SE12      29.86F HX  96
ODELL 4ENE       N/A     94  64  37 SE12      29.85F HX  95
PADUCAH 10SW     N/A     93  64  38 SE12      29.87S
POST 1NE         N/A     90  60  35 S14       29.90S
RRING SPRGS 3N   N/A     91  65  43 SE9       29.91S
SEYMOUR 3NW      N/A     94  62  34 SE9       29.85F
SPUR 1W          N/A     94  58  30 SE7       29.88S
WEINERT 2NNE     N/A     94  65  37 SE12      29.86F HX  96
WHITE RVR 6NE    N/A     94  59  31 SE9       29.91S
$$

TXZ052-054-060>062-072-078-127-140-154-169-030100-
TEXAS TECH WEST TEXAS MESONET/PERMIAN BASIN/
CONCHO VALLEY/BIG COUNTRY/EDWARDS PLATEAU

CITY           SKY/WX    TMP DP  RH WIND       PRES   REMARKS
COYANOSA 2N      N/A    100  55  22 SE14      29.86S HX  99
JUNCTION 1SSW    N/A     96  62  32 NE3       29.90S HX  97
MERTZON 3NNE     N/A     96  61  31 SE6       29.89F HX  96
SAN ANGELO 7NW   N/A     97  55  24 E13       29.88S HX  95
STRLNG CT 4WSW   N/A     96  59  29 E14       29.90S HX  95
ST LAWRNCE 5SW   N/A     95  58  28 SE9       29.90S
SWEETWATR 11SW   N/A     94  61  33 SE12      29.92F
WALL 1E          N/A     96  59  29 E13       29.89S HX  95
$$

TXZ055-058-074-075-080-082-030100-
TEXAS TECH WEST TEXAS MESONET/FAR WEST/SOUTHWEST MOUNTAINS/TRANS PECOS

CITY           SKY/WX    TMP DP  RH WIND       PRES   REMARKS
$$


USA.gov is the U.S. government's official web portal to all federal, state and local government web resources and services.